W8BUG Weather Reports


time (UTC)temp
F
wind
direction
speed
knots
gust
knots
rain 1hr
in
rain 24hr
in
rain mn
in
humidity
%
barometer
mb
20260503230614 0 65 0.0 2.6 0.00 0.00 0.00 1020.1
20260503230111 0 66 0.0 0.0 0.00 0.00 0.00 1020.3
20260503225609 0 65 0.9 1.7 0.00 0.00 0.00 1020.3
20260503225108 0 65 0.0 0.9 0.00 0.00 0.00 1020.6
20260503224606 0 66 0.0 0.0 0.00 0.00 0.00 1020.3
20260503224104 0 86 1.7 5.2 0.00 0.00 0.00 1020.6
20260503223602 0 67 0.9 4.3 0.00 0.00 0.00 1020.5
20260503223056 0 69 0.9 2.6 0.00 0.00 0.00 1020.6
20260503222555 0 69 0.0 0.9 0.00 0.00 0.00 1020.6
20260503222052 0 80 3.5 5.2 0.00 0.00 0.00 1020.7
20260503221550 0 67 0.9 5.2 0.00 0.00 0.00 1020.8
20260503221047 0 74 0.0 4.3 0.00 0.00 0.00 1020.7
20260503220543 0 65 1.7 2.6 0.00 0.00 0.00 1020.9
20260503220041 0 65 0.9 1.7 0.00 0.00 0.00 1020.9
20260503215537 0 83 0.9 0.9 0.00 0.00 0.00 1020.9
20260503215034 0 65 0.0 4.3 0.00 0.00 0.00 1021.0
20260503214533 0 65 0.0 1.7 0.00 0.00 0.00 1021.0
20260503214029 0 65 0.0 2.6 0.00 0.00 0.00 1021.0
20260503213528 0 65 0.0 0.0 0.00 0.00 0.00 1021.1
20260503213024 0 65 0.0 0.9 0.00 0.00 0.00 1021.1
20260503212521 0 64 0.0 0.9 0.00 0.00 0.00 1021.1
20260503212019 0 80 1.7 7.0 0.00 0.00 0.00 1021.0
20260503211516 0 71 1.7 6.1 0.00 0.00 0.00 1021.4
20260503211011 0 86 0.0 0.9 0.00 0.00 0.00 1021.4
20260503210508 0 72 1.7 4.3 0.00 0.00 0.00 1021.2
20260503210005 0 66 0.0 4.3 0.00 0.00 0.00 1021.3
20260503205501 0 67 0.9 1.7 0.00 0.00 0.00 1021.4
20260503204956 0 74 1.7 2.6 0.00 0.00 0.00 1021.6
20260503204454 0 78 0.0 4.3 0.00 0.00 0.00 1021.6
20260503203950 0 65 0.0 1.7 0.00 0.00 0.00 1021.8
20260503203449 0 66 0.0 0.9 0.00 0.00 0.00 1021.6
20260503202945 0 73 0.9 2.6 0.00 0.00 0.00 1021.8
20260503202443 0 69 0.0 4.3 0.00 0.00 0.00 1021.9
20260503201941 0 86 0.9 4.3 0.00 0.00 0.00 1021.9
20260503201439 0 65 0.0 0.9 0.00 0.00 0.00 1022.2
20260503200936 0 76 0.9 7.0 0.00 0.00 0.00 1022.2
20260503200432 0 66 0.0 4.3 0.00 0.00 0.00 1022.5
20260503195929 0 81 1.7 2.6 0.00 0.00 0.00 1022.3
20260503195426 0 79 0.0 1.7 0.00 0.00 0.00 1022.5
20260503194922 0 84 2.6 4.3 0.00 0.00 0.00 1022.5
20260503194419 0 65 0.9 1.7 0.00 0.00 0.00 1022.5
20260503193915 0 66 0.0 4.3 0.00 0.00 0.00 1022.5
20260503193410 0 67 0.9 1.7 0.00 0.00 0.00 1022.5
20260503192906 0 67 0.9 1.7 0.00 0.00 0.00 1022.8
20260503192403 0 86 1.7 4.3 0.00 0.00 0.00 1023.1
20260503191859 0 65 0.9 4.3 0.00 0.00 0.00 1022.9
20260503191356 0 84 2.6 2.6 0.00 0.00 0.00 1023.1
20260503190852 0 86 1.7 2.6 0.00 0.00 0.00 1023.2
20260503190350 0 66 0.0 1.7 0.00 0.00 0.00 1023.2
20260503185846 0 68 0.9 2.6 0.00 0.00 0.00 1023.2
20260503185342 0 80 1.7 4.3 0.00 0.00 0.00 1023.3
20260503184837 0 65 0.9 2.6 0.00 0.00 0.00 1023.2
20260503184333 0 72 0.9 2.6 0.00 0.00 0.00 1023.4
20260503183829 0 67 0.0 5.2 0.00 0.00 0.00 1023.5
20260503183326 0 74 0.9 1.7 0.00 0.00 0.00 1023.6
20260503182824 0 68 0.0 1.7 0.00 0.00 0.00 1023.4
20260503182323 0 86 2.6 4.3 0.00 0.00 0.00 1023.6
20260503181820 0 67 1.7 5.2 0.00 0.00 0.00 1023.5
20260503181317 0 65 0.0 1.7 0.00 0.00 0.00 1023.7
20260503180813 0 83 2.6 6.1 0.00 0.00 0.00 1023.6
20260503180311 0 72 0.9 2.6 0.00 0.00 0.00 1023.8
20260503175807 0 69 0.9 2.6 0.00 0.00 0.00 1023.9
20260503175305 0 65 0.9 2.6 0.00 0.00 0.00 1024.2
20260503174800 0 66 2.6 2.6 0.00 0.00 0.00 1024.1
20260503174259 0 67 0.9 2.6 0.00 0.00 0.00 1024.2
20260503173754 0 65 0.9 1.7 0.00 0.00 0.00 1023.9
20260503173250 0 78 0.0 2.6 0.00 0.00 0.00 1024.2
20260503172747 0 64 1.7 2.6 0.00 0.00 0.00 1024.4
20260503172244 0 86 2.6 4.3 0.00 0.00 0.00 1024.4
20260503171741 0 67 0.9 4.3 0.00 0.00 0.00 1024.4
20260503171238 0 86 2.6 4.3 0.00 0.00 0.00 1024.5
20260503170735 0 64 0.9 1.7 0.00 0.00 0.00 1024.4
20260503170232 0 86 3.5 5.2 0.00 0.00 0.00 1024.5
20260503160153 0 65 0.9 1.7 0.00 0.00 0.00 1025.0
20260503150624 0 83 2.6 2.6 0.00 0.00 0.00 1025.8
20260503150120 0 64 0.9 1.7 0.00 0.00 0.00 1025.4
20260503131014 0 64 0.0 0.9 0.00 0.00 0.00 1025.4
20260503130511 0 64 0.0 0.9 0.00 0.00 0.00 1025.2
20260503110401 0 64 0.9 0.9 0.00 0.00 0.00 1024.2
20260503090252 0 64 0.9 1.7 0.00 0.00 0.00 1023.3
20260503081220 0 64 0.9 1.7 0.00 0.00 0.00 1023.1
20260503080715 0 64 0.9 1.7 0.00 0.00 0.00 1023.1
20260503080213 0 64 0.9 1.7 0.00 0.00 0.00 1022.7
20260503072649 0 65 0.9 1.7 0.00 0.00 0.00 1022.4
20260503072146 0 65 1.7 1.7 0.00 0.00 0.00 1022.3
20260503071643 0 64 0.9 0.9 0.00 0.00 0.00 1022.4
20260503071140 0 64 0.9 1.7 0.00 0.00 0.00 1022.2
20260503070637 0 64 0.9 1.7 0.00 0.00 0.00 1022.2
20260503070135 0 66 0.9 1.7 0.00 0.00 0.00 1022.3
20260503055050 0 67 0.0 0.9 0.00 0.00 0.00 1022.1
20260503054546 0 64 0.0 0.0 0.00 0.00 0.00 1022.0
20260503054043 0 64 0.0 0.9 0.00 0.00 0.00 1022.0
20260503053541 0 64 0.9 0.9 0.00 0.00 0.00 1021.8
20260503053039 0 64 0.9 0.9 0.00 0.00 0.00 1021.9
20260503052535 0 64 0.0 0.0 0.00 0.00 0.00 1021.9
20260503052031 0 65 0.0 0.0 0.00 0.00 0.00 1021.8
20260503051527 0 64 0.0 0.0 0.00 0.00 0.00 1021.8
20260503051025 0 64 0.0 0.0 0.00 0.00 0.00 1021.7
20260503050520 0 64 0.0 0.9 0.00 0.00 0.00 1021.8
20260503050018 0 64 0.9 0.9 0.00 0.00 0.00 1022.0
20260503045515 0 65 0.9 1.7 0.00 0.00 0.00 1021.7
20260503045013 0 64 0.9 1.7 0.00 0.00 0.00 1021.9
20260503044509 0 64 0.9 0.9 0.00 0.00 0.00 1021.8
20260503044007 0 64 0.9 0.9 0.00 0.00 0.00 1021.7
20260503043503 0 65 0.9 1.7 0.00 0.00 0.00 1021.8
20260503042959 0 64 0.9 1.7 0.00 0.00 0.00 1021.9
20260503042456 0 65 0.9 1.7 0.00 0.00 0.00 1021.7
20260503041952 0 64 0.9 1.7 0.00 0.00 0.00 1021.5
20260503041449 0 65 0.9 1.7 0.00 0.00 0.00 1021.5
20260503040947 0 64 0.9 0.9 0.00 0.00 0.00 1021.6
20260503040444 0 64 0.9 0.9 0.00 0.00 0.00 1021.4
20260503035941 0 64 0.0 0.0 0.00 0.00 0.00 1021.5
20260503035438 0 64 0.0 0.0 0.00 0.00 0.00 1021.5
20260503034936 0 66 0.0 0.9 0.00 0.00 0.00 1021.5
20260503034433 0 64 0.0 0.0 0.00 0.00 0.00 1021.6
20260503033930 0 64 0.0 0.9 0.00 0.00 0.00 1021.5
20260503033427 0 64 0.9 0.9 0.00 0.00 0.00 1021.5
20260503032925 0 64 0.9 0.9 0.00 0.00 0.00 1021.5
20260503032424 0 64 0.9 1.7 0.00 0.00 0.00 1021.3
20260503031921 0 64 0.9 1.7 0.00 0.00 0.00 1021.3
20260503031418 0 64 0.9 1.7 0.00 0.00 0.00 1021.3
20260503030915 0 64 0.9 1.7 0.00 0.00 0.00 1021.3
20260503030411 0 64 0.9 1.7 0.00 0.00 0.00 1021.2
20260503025908 0 64 1.7 1.7 0.00 0.00 0.00 1021.3
20260503025405 0 64 0.9 1.7 0.00 0.00 0.00 1021.3
20260503024903 0 64 0.9 1.7 0.00 0.00 0.00 1021.3
20260503024359 0 64 0.9 1.7 0.00 0.00 0.00 1021.1
20260503023856 0 64 0.9 1.7 0.00 0.00 0.00 1021.1
20260503023353 0 64 0.9 1.7 0.00 0.00 0.00 1021.1
20260503022850 0 64 0.9 1.7 0.00 0.00 0.00 1021.2
20260503022344 0 64 0.9 1.7 0.00 0.00 0.00 1021.0
20260503021841 0 64 0.9 1.7 0.00 0.00 0.00 1021.1
20260503021337 0 64 1.7 1.7 0.00 0.00 0.00 1020.8
20260503020834 0 64 1.7 1.7 0.00 0.00 0.00 1020.8
20260503020333 0 66 0.9 1.7 0.00 0.00 0.00 1020.9
20260503015829 0 64 0.9 1.7 0.00 0.00 0.00 1020.7
20260503015326 0 66 1.7 1.7 0.00 0.00 0.00 1020.6
20260503014821 0 65 1.7 2.6 0.00 0.00 0.00 1020.7
20260503014319 0 64 0.9 1.7 0.00 0.00 0.00 1020.4
20260503013816 0 64 1.7 1.7 0.00 0.00 0.00 1020.6
20260503013314 0 64 0.9 0.9 0.00 0.00 0.00 1020.5
20260503012811 0 64 0.9 1.7 0.00 0.00 0.00 1020.4
20260503012308 0 64 0.9 1.7 0.00 0.00 0.00 1020.1
20260503011805 0 64 1.7 1.7 0.00 0.00 0.00 1020.1
20260503011302 0 64 0.9 1.7 0.00 0.00 0.00 1020.0
20260503010758 0 65 0.0 0.9 0.00 0.00 0.00 1019.8
20260503010255 0 64 0.9 1.7 0.00 0.00 0.00 1019.9
20260503005752 0 64 0.9 1.7 0.00 0.00 0.00 1019.8
20260503005250 0 64 0.9 0.9 0.00 0.00 0.00 1019.9
20260503004745 0 65 0.0 0.0 0.00 0.00 0.00 1019.8
20260503004244 0 65 0.0 0.0 0.00 0.00 0.00 1019.6
20260503003741 0 64 0.0 0.0 0.00 0.00 0.00 1019.7
20260503003238 0 64 0.0 0.9 0.00 0.00 0.00 1019.6
20260503002734 0 64 0.9 0.9 0.00 0.00 0.00 1019.5
20260503002231 0 65 1.7 1.7 0.00 0.00 0.00 1019.4
20260503001727 0 64 0.0 0.9 0.00 0.00 0.00 1019.2
20260503001224 0 64 0.0 0.9 0.00 0.00 0.00 1019.2
20260503000722 0 64 0.9 0.9 0.00 0.00 0.00 1019.2
20260503000219 0 64 0.9 1.7 0.00 0.00 0.00 1019.2
20260502235716 0 64 0.9 1.7 0.00 0.00 0.00 1019.1
20260502235214 0 64 1.7 1.7 0.00 0.00 0.00 1019.0
20260502234710 0 64 0.9 1.7 0.00 0.00 0.00 1018.8
20260502234207 0 64 1.7 2.6 0.00 0.00 0.00 1018.8
20260502233703 0 64 0.9 1.7 0.00 0.00 0.00 1018.7
20260502233200 0 64 1.7 2.6 0.00 0.00 0.00 1018.8
20260502232655 0 77 1.7 4.3 0.00 0.00 0.00 1018.8
20260502232153 0 66 1.7 2.6 0.00 0.00 0.00 1018.7
20260502231649 0 65 1.7 2.6 0.00 0.00 0.00 1018.9
20260502231148 0 70 1.7 4.3 0.00 0.00 0.00 1018.7